SUPERBIRD-B2

Last updated on Aug. 17, 2018, 12:20 a.m. UTC

1 26095U 00012A   18228.52115229 -.00000290  00000-0  00000+0 0  9994
2 26095   1.3115  91.1225 0015098  75.8287 132.4188  0.98852963 67724
UTC
Height (km)
Latitude
Longitude
Inclination
Orbital Period
UTC large
Height (km)
Speed (km/s)
/
Latitude / Longitude
Inclination (degrees)
Orbital Period (minutes)
Azimuth
Elevation
Range (km)
Doppler Factor
iOS Compass Heading
iOS Angle

Next 30 passes for location: Hong Kong

Rise time Rise Azimuth (degrees) Set time Set Azimuth (degrees) Duration Max altitude (degrees)

No matching passes for this satellites